East Wenatchee, WA

1:56 PM PST on February 23, 2017 (GMT -0800)
Pangborn Memorial

Weather History for KEAT - January, 2015

Change the Weather History Date:

Wednesday, January 7, 2015

  Actual Average Record
Temperature  
Mean Temperature 31 °F 26 °F  
Max Temperature 35 °F 32 °F 54 °F (1983)
Min Temperature 27 °F 21 °F -10 °F (1993)
Degree Days  
Heating Degree Days 34 39  
Month to date heating degree days 269 274  
Since 1 July heating degree days 2305 3372  
Cooling Degree Days 0 0  
Month to date cooling degree days 0 0  
Year to date cooling degree days 0 0  
Moisture  
Dew Point 31 °F    
Average Humidity 95    
Maximum Humidity 100    
Minimum Humidity 89    
Precipitation  
Precipitation 0.00 in 0.07 in 0.29 in (1975)
Month to date precipitation 0.03 0.50  
Year to date precipitation 0.03 0.50  
Snow  
Snow 0.00 in 0.60 in - ()
Month to date snowfall 4.3  
Since 1 July snowfall 29.2  
Snow Depth -    
Sea Level Pressure  
Sea Level Pressure 30.41 in    
Wind  
Wind Speed 5 mph (WNW)    
Max Wind Speed 10 mph    
Max Gust Speed 12 mph    
Visibility 1 miles    
Events Fog    
T = Trace of Precipitation, MM = Missing Value Source: NWS Daily Summary

Daily Weather History Graph

Daily Weather History Graph

Search for Another Location

Airport or City:

Trip Planner

Search our weather history database for the weather conditions in past years. The results will help you decide how hot, cold, wet, or windy it might be!

Date:

Astronomy

Jan. 07, 2015 Rise Set
Actual Time 7:47 AM PST 4:27 PM PST
Civil Twilight 7:12 AM PST 5:02 PM PST
Nautical Twilight 6:33 AM PST 5:41 PM PST
Astronomical Twilight 5:56 AM PST 6:18 PM PST
Moon 7:29 PM PST (1/7) 8:51 AM PST (1/7)
Length of Visible Light 9h 50m
Length of Day
8h 39m
Waning Gibbous, 94% of the Moon is Illuminated
Jan 7
Waning Gibbous
Jan 13
Last Quarter
Jan 20
New
Jan 26
First Quarter
Feb 3
Full

Hourly Weather History & Observations

Time (PST) Temp. Windchill Dew Point Humidity Pressure Visibility Wind Dir Wind Speed Gust Speed Precip Events Conditions
12:09 AM 30.9 °F - 28.0 °F 89% 30.45 in 1.5 mi Calm Calm - N/A   Clear
12:18 AM 28.0 °F 21.7 °F 24.1 °F 85% 30.45 in 1.2 mi NW 5.8 mph - N/A   Partly Cloudy
12:22 AM 30.0 °F 26.5 °F 27.0 °F 88% 30.45 in 3.0 mi NNW 3.5 mph - N/A   Partly Cloudy
12:55 AM 30.9 °F 27.5 °F 28.0 °F 89% 30.49 in 8.0 mi NNW 3.5 mph - N/A   Clear
1:35 AM 28.9 °F 21.9 °F 27.0 °F 92% 30.46 in 1.8 mi WNW 6.9 mph - N/A   Partly Cloudy
1:50 AM 28.4 °F 20.4 °F 24.8 °F 86% 30.46 in 1.2 mi WNW 8.1 mph - N/A   Partly Cloudy
1:53 AM 28.4 °F 19.7 °F 24.8 °F 86% 30.47 in 3.0 mi WNW 9.2 mph - N/A   Scattered Clouds
1:55 AM 28.9 °F 20.4 °F 26.1 °F 89% 30.51 in 1.8 mi WNW 9.2 mph - N/A   Scattered Clouds
1:59 AM 30.0 °F 21.7 °F 28.0 °F 92% 30.47 in 0.8 mi WNW 9.2 mph - N/A   Mist
2:24 AM 30.0 °F 25.2 °F 28.0 °F 92% 30.46 in 0.2 mi West 4.6 mph - N/A Fog Light Freezing Fog
2:55 AM 28.9 °F 22.8 °F 26.1 °F 89% 30.51 in 0.2 mi West 5.8 mph - N/A Fog Light Freezing Fog
3:01 AM 30.9 °F 24.3 °F 28.9 °F 92% 30.47 in 0.5 mi West 6.9 mph - N/A Fog Light Freezing Fog
3:19 AM 32.0 °F 26.4 °F 30.0 °F 92% 30.46 in 1.0 mi West 5.8 mph - N/A   Overcast
3:27 AM 32.0 °F 25.6 °F 30.0 °F 92% 30.46 in 0.8 mi West 6.9 mph - N/A   Overcast
3:55 AM 32.0 °F 25.6 °F 30.0 °F 92% 30.49 in 0.5 mi West 6.9 mph - N/A Fog Fog
4:12 AM 32.0 °F 27.5 °F 30.9 °F 96% 30.44 in 0.5 mi WNW 4.6 mph - N/A Fog Fog
4:55 AM 33.1 °F 26.9 °F 30.9 °F 92% 30.48 in 0.5 mi West 6.9 mph - N/A Fog Fog
5:36 AM 33.1 °F 28.7 °F 30.9 °F 92% 30.43 in 0.2 mi NW 4.6 mph - N/A Fog Fog
5:55 AM 33.1 °F 30.0 °F 30.9 °F 92% 30.47 in 0.2 mi WNW 3.5 mph - N/A Fog Fog
6:55 AM 33.1 °F 28.7 °F 32.0 °F 96% 30.45 in 0.2 mi West 4.6 mph - N/A Fog Fog
7:55 AM 33.1 °F 27.7 °F 32.0 °F 96% 30.46 in 0.2 mi West 5.8 mph - N/A Fog Fog
8:44 AM 33.1 °F 28.7 °F 33.1 °F 100% 30.42 in 0.2 mi WSW 4.6 mph - N/A Fog Fog
8:55 AM 33.1 °F 28.7 °F 32.0 °F 96% 30.45 in 0.2 mi WSW 4.6 mph - N/A Fog Fog
9:55 AM 34.0 °F 28.0 °F 33.1 °F 96% 30.44 in 0.2 mi West 6.9 mph - N/A Fog Fog
10:23 AM 34.0 °F 31.0 °F 33.1 °F 96% 30.40 in 0.2 mi West 3.5 mph - N/A Fog Fog
10:35 AM 34.0 °F 31.0 °F 34.0 °F 100% 30.39 in 0.2 mi WSW 3.5 mph - N/A Fog Fog
10:55 AM 34.0 °F 28.8 °F 33.1 °F 96% 30.43 in 0.2 mi West 5.8 mph - N/A Fog Fog
11:11 AM 35.1 °F 30.1 °F 33.1 °F 92% 30.39 in 0.8 mi West 5.8 mph - N/A   Mist
11:19 AM 35.1 °F 30.1 °F 33.1 °F 92% 30.39 in 1.8 mi West 5.8 mph - N/A   Overcast
11:26 AM 34.0 °F 28.8 °F 33.1 °F 96% 30.38 in 2.5 mi WNW 5.8 mph - N/A   Overcast
11:34 AM 34.0 °F 28.8 °F 33.1 °F 96% 30.38 in 5.0 mi WNW 5.8 mph - N/A   Overcast
11:55 AM 34.0 °F 28.8 °F 33.1 °F 96% 30.40 in 4.0 mi West 5.8 mph - N/A   Overcast
12:10 PM 34.0 °F 29.8 °F 33.1 °F 96% 30.35 in 2.0 mi NW 4.6 mph - N/A   Overcast
12:27 PM 34.0 °F 29.8 °F 33.1 °F 96% 30.35 in 1.5 mi West 4.6 mph - N/A   Overcast
12:48 PM 34.0 °F 28.8 °F 33.1 °F 96% 30.33 in 2.5 mi NW 5.8 mph - N/A   Overcast
12:55 PM 34.0 °F 31.0 °F 33.1 °F 96% 30.37 in 2.0 mi WNW 3.5 mph - N/A   Overcast
1:03 PM 34.0 °F 28.8 °F 33.1 °F 96% 30.33 in 1.2 mi WNW 5.8 mph - N/A   Overcast
1:21 PM 34.0 °F - 33.1 °F 96% 30.34 in 0.5 mi Calm Calm - N/A Fog Fog
1:55 PM 34.0 °F - 33.1 °F 96% 30.39 in 0.5 mi Calm Calm - N/A Fog Fog
2:19 PM 34.0 °F 31.0 °F 32.0 °F 92% 30.34 in 1.0 mi WSW 3.5 mph - N/A   Mist
2:26 PM 34.0 °F 31.0 °F 33.1 °F 96% 30.34 in 0.8 mi WNW 3.5 mph - N/A   Mist
2:48 PM 34.0 °F 31.0 °F 33.1 °F 96% 30.34 in 0.2 mi Variable 3.5 mph - N/A Fog Fog
2:55 PM 34.0 °F - 32.0 °F 92% 30.38 in 0.5 mi Calm Calm - N/A Fog Fog
3:07 PM 34.0 °F 31.0 °F 32.0 °F 92% 30.34 in 1.2 mi WNW 3.5 mph - N/A   Overcast
3:17 PM 34.0 °F - 32.0 °F 92% 30.34 in 0.5 mi Calm Calm - N/A Fog Fog
3:55 PM 34.0 °F - 32.0 °F 92% 30.38 in 0.5 mi Calm Calm - N/A Fog Fog
4:02 PM 34.0 °F - 32.0 °F 92% 30.34 in 0.2 mi Calm Calm - N/A Fog Fog
4:42 PM 34.0 °F - 32.0 °F 92% 30.34 in 0.5 mi Calm Calm - N/A Fog Fog
4:55 PM 34.0 °F - 32.0 °F 92% 30.38 in 0.5 mi Calm Calm - N/A Fog Fog
5:24 PM 34.0 °F - 32.0 °F 92% 30.34 in 0.2 mi Calm Calm - N/A Fog Fog
5:55 PM 34.0 °F - 33.1 °F 96% 30.38 in 0.2 mi Calm Calm - N/A Fog Fog
6:23 PM 33.1 °F 30.0 °F 30.9 °F 92% 30.36 in 1.0 mi North 3.5 mph - N/A   Mist
6:35 PM 33.1 °F - 30.9 °F 92% 30.36 in 0.5 mi Calm Calm - N/A Fog Fog
6:55 PM 34.0 °F - 32.0 °F 92% 30.41 in 0.5 mi Calm Calm - N/A Fog Fog
7:23 PM 34.0 °F 29.8 °F 32.0 °F 92% 30.37 in 0.2 mi WNW 4.6 mph - N/A Fog Fog
7:35 PM 34.0 °F 28.8 °F 32.0 °F 92% 30.37 in 0.5 mi West 5.8 mph - N/A Fog Fog
7:55 PM 34.0 °F 26.6 °F 32.0 °F 92% 30.42 in 0.8 mi West 9.2 mph - N/A   Mist
8:07 PM 34.0 °F 27.2 °F 32.0 °F 92% 30.38 in 1.0 mi WNW 8.1 mph - N/A   Mist
8:20 PM 34.0 °F 27.2 °F 32.0 °F 92% 30.38 in 0.8 mi NW 8.1 mph - N/A   Mist
8:55 PM 34.0 °F 28.0 °F 32.0 °F 92% 30.42 in 0.5 mi West 6.9 mph - N/A Fog Fog
9:08 PM 33.1 °F 26.9 °F 32.0 °F 96% 30.37 in 0.2 mi West 6.9 mph - N/A Fog Fog
9:26 PM 33.1 °F 26.9 °F 32.0 °F 96% 30.37 in 0.2 mi WNW 6.9 mph - N/A Fog Fog
9:55 PM 33.1 °F 26.9 °F 30.9 °F 92% 30.41 in 0.2 mi West 6.9 mph - N/A Fog Fog
10:55 PM 33.1 °F 27.7 °F 30.9 °F 92% 30.41 in 0.2 mi West 5.8 mph - N/A Fog Fog
11:55 PM 33.1 °F 27.7 °F 30.9 °F 92% 30.40 in 0.2 mi West 5.8 mph - N/A Fog Fog